[[{"header":{"parameterUnit":"m.s-1","parameterCategory":1,"la1":30.2991,"la2":30.254,"lo1":-89.0895,"lo2":-89.0444,"dy":0.0017,"dx":0.0017,"nx":28,"ny":28,"refTime":"2026-01-02T03:00:00:Z","depth":0,"parameterNumber":2,"parameterNumberName":"U-component_of_WINDS"},"data":[0,0,0,0,0,0,0,0,0,0,0,0,0,0,0,0,0,0,0,0,0,0,0,0,0,0,0,0,0,0,0,0,0,0,0,0,0,0,0,0,0,0,0,0,0,0,0,0,0,0,0,0,0,0,0,0,0,0,0.06,0.0601,0,0.0674,0.0675,0.0676,0.0698,0.0697,0.0697,0.0696,0.0775,0.0778,0.078,0,0,0,0,0,0,0,0,0,0,0,0,0,0.0481,0.0483,0.06,0.0601,0.0602,0.0674,0.0675,0.0676,0.0698,0.0697,0.0697,0.0696,0.0774,0.0777,0.078,0,0,0,0,0,0,0,0,0,0,0,0,0,0.0541,0.0483,0.06,0.0621,0.0624,0.0674,0.0675,0.0677,0.0698,0.0697,0.0697,0.0696,0.0773,0.0777,0.0781,0.0816,0,0,0.0792,0.0794,0,0,0,0,0,0,0,0,0.0538,0.0546,0.0617,0.062,0.0623,0.0676,0.0662,0.0723,0.0698,0.067,0.0696,0.0696,0.0743,0.0749,0.0764,0.0819,0.0823,0.0792,0.0795,0.0796,0.0797,0,0,0,0,0,0,0,0.0534,0.0543,0.063,0.0618,0.0622,0.0628,0.0636,0.0674,0.0709,0.0672,0.0674,0.0682,0.0744,0.0761,0.0766,0.0824,0.0792,0.0795,0.0798,0.0799,0.0914,0.0915,0,0,0,0,0,0,0.0525,0.0539,0.0627,0.0632,0.0578,0.0631,0.064,0.066,0.0708,0.0715,0.0683,0.0683,0.0755,0.0762,0.0769,0.0815,0.0796,0.08,0.0802,0.0913,0.0914,0.0915,0,0,0,0,0,0,0.0523,0.0533,0.0624,0.0586,0.0598,0.0634,0.0656,0.0661,0.0678,0.0716,0.0723,0.0693,0.0754,0.0764,0.0804,0.0818,0.0801,0.0805,0.0912,0.0914,0.0915,0.0907,0,0,0,0,0,0,0.0519,0.0532,0.0545,0.0586,0.06,0.0657,0.0656,0.0663,0.0684,0.0685,0.0728,0.0734,0.0755,0.0799,0.0808,0.0823,0.0808,0.0911,0.0913,0.0914,0.0906,0.0907,0.0909,0,0,0,0,0,0.0515,0.0539,0.0545,0.0556,0.0616,0.0657,0.0666,0.0688,0.0685,0.0699,0.0724,0.0733,0.0815,0.0803,0.0813,0.083,0.0911,0.0913,0.0914,0.0905,0.0907,0.0909,0,0,0,0,0,0,0.0499,0.0545,0.0552,0.059,0.062,0.0661,0.0679,0.0689,0.0721,0.072,0.0748,0.0757,0.0796,0.0817,0.0802,0.0868,0.0863,0.0867,0.0853,0.0855,0.0856,0.0851,0.0811,0,0,0,0,0,0.05,0.0528,0.0567,0.0597,0.0612,0.0643,0.0662,0.0676,0.0708,0.0721,0.0749,0.0781,0.0814,0.0835,0.0868,0.0909,0.092,0.0925,0.0927,0.0928,0.0932,0.0957,0.0961,0.0921,0.0921,0.0921,0,0,0.0502,0.0531,0.0547,0.0595,0.062,0.065,0.0653,0.0685,0.0708,0.0726,0.0766,0.0788,0.0826,0.0867,0.0886,0.0885,0.0945,0.093,0.0931,0.0934,0.0959,0.0963,0.0966,0.0923,0.0922,0.0922,0,0,0.0522,0.0545,0.0574,0.0599,0.0636,0.0657,0.0664,0.0704,0.0719,0.076,0.0775,0.0803,0.0859,0.0886,0.0907,0.0939,0.0949,0.0949,0.0957,0.0981,0.0985,0.0988,0.1001,0.1005,0.0952,0.0952,0.0952,0,0.052,0.0565,0.0588,0.0619,0.0641,0.0658,0.0689,0.0712,0.0758,0.0773,0.0771,0.0843,0.087,0.0919,0.0926,0.0942,0.0953,0.0944,0.0982,0.0985,0.0988,0.1002,0.1006,0.0952,0.0952,0.0952,0.0952,0,0.0562,0.0594,0.0613,0.0657,0.0681,0.0711,0.074,0.0762,0.0775,0.0796,0.0839,0.0871,0.0911,0.0924,0.0937,0.0975,0.0974,0.0976,0.0973,0.0992,0.1005,0.101,0.0952,0.0952,0.0952,0.0952,0,0,0.0573,0.0631,0.0637,0.0659,0.0702,0.0727,0.076,0.0799,0.0818,0.0849,0.0879,0.0927,0.093,0.0954,0.097,0.0991,0.1018,0.0992,0.0994,0.0997,0.1065,0.1064,0.1069,0.1024,0.1025,0.1026,0.1062,0,0.06,0.0658,0.068,0.0728,0.0758,0.0776,0.0805,0.0836,0.0857,0.0887,0.0911,0.0945,0.0946,0.0961,0.0983,0.101,0.1032,0.1007,0.1054,0.1055,0.1045,0.1075,0.1074,0.1106,0.1067,0.1068,0.1069,0,0.0638,0.0671,0.0721,0.0763,0.0777,0.0802,0.0841,0.0869,0.0904,0.0919,0.0946,0.0961,0.0998,0.0992,0.1044,0.1027,0.1047,0.1064,0.1066,0.1072,0.1064,0.1084,0.1117,0.1122,0.1077,0.1076,0.1075,0,0.0643,0.07,0.0738,0.0755,0.0804,0.0822,0.0843,0.0878,0.0901,0.0936,0.0951,0.0989,0.1011,0.1041,0.1067,0.1059,0.1118,0.1113,0.1132,0.1132,0.1145,0.1144,0.1183,0.1155,0.1155,0.1155,0.1155,0,0.0671,0.0702,0.0741,0.0765,0.0801,0.0827,0.0862,0.0885,0.0916,0.0946,0.0964,0.0992,0.1024,0.1057,0.1077,0.1119,0.1128,0.1142,0.1147,0.1141,0.114,0.1156,0.1155,0.1156,0.1156,0.1156,0.1155,0,0.0683,0.071,0.0754,0.0797,0.0809,0.0833,0.0871,0.0896,0.0918,0.0956,0.0966,0.1002,0.1042,0.1071,0.1121,0.1136,0.1181,0.1185,0.1168,0.1172,0.119,0.1189,0.1242,0.1252,0.1216,0.1216,0.1217,0,0.07,0.0724,0.077,0.0791,0.0813,0.0846,0.087,0.0897,0.0921,0.0965,0.0985,0.1025,0.1059,0.1122,0.1154,0.1193,0.12,0.1216,0.1207,0.12,0.1203,0.1202,0.1206,0.1218,0.1218,0.1219,0.1219,0,0.0727,0.074,0.0773,0.0811,0.0839,0.087,0.0902,0.0919,0.0952,0.0979,0.1019,0.1046,0.1098,0.1139,0.1182,0.1206,0.1219,0.1222,0.1229,0.1223,0.1213,0.1221,0.1174,0.122,0.122,0.122,0.122,0.122,0.0743,0.0767,0.0803,0.084,0.0867,0.0897,0.0923,0.0949,0.0983,0.1028,0.1042,0.1085,0.1122,0.1182,0.1206,0.1241,0.1241,0.125,0.1253,0.1255,0.1256,0.1206,0.1249,0.1249,0.1249,0.1249,0.1249,0,0.0773,0.0798,0.0831,0.0876,0.0906,0.0914,0.0951,0.0975,0.1012,0.1046,0.1079,0.1127,0.1168,0.1203,0.1245,0.1266,0.1274,0.1277,0.1276,0.1282,0.1253,0.1244,0.1271,0.1271,0.1271,0.1271,0.127,0.127,0.0792,0.0833,0.085,0.0905,0.093,0.0972,0.0992,0.1021,0.1048,0.1101,0.1134,0.1157,0.1192,0.1237,0.1275,0.1285,0.1301,0.1303,0.1314,0.1286,0.1284,0.1281,0.1273,0.1306,0.1306,0.1341,0.1341,0.1341]},{"header":{"parameterUnit":"m.s-1","parameterCategory":1,"la1":30.2991,"la2":30.254,"lo1":-89.0895,"lo2":-89.0444,"dy":0.0017,"dx":0.0017,"nx":28,"ny":28,"refTime":"2026-01-02T03:00:00:Z","depth":0,"parameterNumber":3,"parameterNumberName":"V-component_of_WINDS"},"data":[0,0,0,0,0,0,0,0,0,0,0,0,0,0,0,0,0,0,0,0,0,0,0,0,0,0,0,0,0,0,0,0,0,0,0,0,0,0,0,0,0,0,0,0,0,0,0,0,0,0,0,0,0,0,0,0,0,0,5.2503,5.2503,0,5.2526,5.2526,5.2527,5.2498,5.2497,5.2496,5.2495,5.2515,5.2517,5.2518,0,0,0,0,0,0,0,0,0,0,0,0,0,5.2432,5.2433,5.2503,5.2503,5.2503,5.2526,5.2526,5.2527,5.2498,5.2497,5.2495,5.2494,5.2515,5.2517,5.2518,0,0,0,0,0,0,0,0,0,0,0,0,0,5.2459,5.2434,5.2503,5.2492,5.2491,5.2526,5.2526,5.2527,5.2498,5.2497,5.2495,5.2494,5.2514,5.2516,5.2519,5.2564,0,0,5.2526,5.2527,0,0,0,0,0,0,0,0,5.2458,5.2462,5.2493,5.2493,5.2492,5.2507,5.2509,5.2539,5.2499,5.2495,5.2495,5.2493,5.2514,5.2516,5.2524,5.2565,5.2566,5.2526,5.2527,5.2528,5.2529,0,0,0,0,0,0,0,5.2456,5.2461,5.2512,5.2494,5.2493,5.2485,5.2487,5.2514,5.2513,5.2496,5.2494,5.2497,5.2513,5.2522,5.2524,5.2566,5.2526,5.2528,5.2529,5.253,5.2649,5.2651,0,0,0,0,0,0,5.2456,5.246,5.2511,5.2513,5.2471,5.2488,5.249,5.2504,5.2513,5.2513,5.2498,5.2496,5.2518,5.2521,5.2525,5.2581,5.2528,5.253,5.2532,5.2647,5.2649,5.2651,0,0,0,0,0,0,5.2454,5.2461,5.251,5.2486,5.2491,5.2491,5.2506,5.2505,5.2514,5.2515,5.2514,5.2507,5.2517,5.2521,5.2555,5.2581,5.2531,5.2533,5.2645,5.2648,5.265,5.2692,0,0,0,0,0,0,5.2452,5.246,5.2478,5.2486,5.2493,5.2541,5.2508,5.2507,5.2518,5.2515,5.2523,5.2523,5.2516,5.2552,5.2558,5.2583,5.2535,5.2643,5.2646,5.2649,5.2688,5.2696,5.2702,0,0,0,0,0,5.245,5.2487,5.2479,5.2485,5.2515,5.2543,5.2546,5.2539,5.252,5.2538,5.2539,5.2523,5.2577,5.2556,5.2562,5.2588,5.2641,5.2645,5.2649,5.2685,5.2694,5.2702,0,0,0,0,0,0,5.248,5.2488,5.2479,5.252,5.2531,5.2538,5.256,5.2548,5.2564,5.256,5.2549,5.2552,5.2589,5.2591,5.2568,5.2634,5.2606,5.2611,5.2631,5.264,5.2647,5.2646,5.2537,0,0,0,0,0,5.2492,5.2515,5.252,5.2556,5.2562,5.256,5.2572,5.2566,5.2576,5.258,5.2584,5.2594,5.2613,5.2626,5.2644,5.2688,5.2691,5.2709,5.2716,5.2722,5.2727,5.2753,5.2762,5.2665,5.2664,5.2664,0,0,5.2515,5.2523,5.2537,5.2562,5.257,5.2594,5.2564,5.259,5.2608,5.2584,5.2618,5.262,5.2631,5.2671,5.2689,5.2674,5.2755,5.2727,5.2732,5.2734,5.2758,5.2768,5.2776,5.2667,5.2667,5.2666,0,0,5.2572,5.2579,5.2611,5.262,5.2634,5.2632,5.264,5.2649,5.2651,5.2685,5.2668,5.2688,5.2721,5.2731,5.274,5.2802,5.2789,5.2808,5.2845,5.287,5.2878,5.2885,5.2909,5.2918,5.2813,5.2813,5.2813,0,5.2599,5.2636,5.2628,5.2657,5.2669,5.265,5.2683,5.2692,5.2709,5.2718,5.2702,5.2746,5.2751,5.2794,5.281,5.2817,5.2826,5.2808,5.2877,5.2884,5.289,5.2914,5.2923,5.2816,5.2815,5.2815,5.2815,0,5.2671,5.2696,5.272,5.2741,5.2755,5.2785,5.2783,5.2798,5.2791,5.2791,5.2827,5.2833,5.2853,5.2863,5.2855,5.2906,5.2897,5.2879,5.2851,5.2902,5.2924,5.2933,5.2819,5.2818,5.2817,5.2817,0,0,5.2746,5.2764,5.2773,5.2783,5.2797,5.2817,5.2846,5.2868,5.2882,5.2895,5.2921,5.2951,5.2935,5.2946,5.2939,5.2961,5.3013,5.2941,5.2941,5.2956,5.3072,5.3087,5.3097,5.3003,5.3005,5.3006,5.3072,0,5.2804,5.2858,5.2854,5.2904,5.2929,5.2912,5.2938,5.295,5.2952,5.2972,5.2973,5.2996,5.2973,5.2979,5.3,5.3002,5.3036,5.2997,5.3028,5.3029,5.3028,5.3108,5.3123,5.3185,5.308,5.3081,5.3082,0,5.288,5.2899,5.2953,5.2966,5.2976,5.3,5.3021,5.304,5.3053,5.3053,5.3066,5.3056,5.3086,5.3056,5.3098,5.3072,5.3084,5.3087,5.3089,5.3093,5.306,5.3116,5.3204,5.3214,5.3095,5.3094,5.3093,0,5.2933,5.2971,5.3009,5.3018,5.3033,5.3051,5.3058,5.307,5.3084,5.3101,5.311,5.313,5.3142,5.3157,5.3153,5.3131,5.3197,5.3166,5.3198,5.3199,5.3214,5.3214,5.3307,5.3219,5.3218,5.3218,5.3218,0,5.3,5.3034,5.3034,5.3057,5.3096,5.309,5.3127,5.3132,5.3143,5.3167,5.3152,5.3175,5.3167,5.319,5.3186,5.3223,5.3227,5.3228,5.3227,5.3231,5.3231,5.324,5.3237,5.3221,5.322,5.322,5.3219,0,5.3066,5.3067,5.3108,5.312,5.3124,5.3152,5.3162,5.3185,5.3186,5.3217,5.3223,5.3225,5.3251,5.3248,5.3275,5.3273,5.332,5.3312,5.3317,5.3316,5.3349,5.3347,5.3454,5.3468,5.3368,5.3369,5.3369,0,5.311,5.3137,5.3153,5.3169,5.3178,5.3204,5.3219,5.3214,5.323,5.3248,5.3269,5.3294,5.3314,5.3356,5.3359,5.3381,5.3375,5.3411,5.3378,5.3382,5.3379,5.3378,5.3382,5.3418,5.3419,5.342,5.3421,0,5.3189,5.3189,5.3212,5.3236,5.3255,5.3274,5.329,5.3304,5.33,5.3319,5.3347,5.3363,5.3393,5.3418,5.3439,5.3446,5.3434,5.3431,5.344,5.3445,5.3447,5.3449,5.3337,5.3429,5.3428,5.3427,5.3427,5.3427,5.3247,5.3271,5.3287,5.3314,5.3327,5.3343,5.3366,5.3371,5.3394,5.342,5.3415,5.3446,5.346,5.3487,5.3496,5.352,5.3507,5.352,5.3523,5.3527,5.3533,5.3442,5.3524,5.3523,5.3523,5.3523,5.3523,0,5.3327,5.3337,5.3362,5.3388,5.3409,5.3397,5.3415,5.3434,5.3462,5.3477,5.3498,5.353,5.3555,5.3561,5.3585,5.3603,5.3599,5.361,5.361,5.3612,5.3541,5.3533,5.3614,5.3614,5.3614,5.3614,5.3614,5.3614,5.3371,5.3413,5.3415,5.3462,5.3471,5.3504,5.3516,5.3531,5.3543,5.3581,5.3603,5.3607,5.3618,5.3643,5.3666,5.3667,5.3678,5.3692,5.3691,5.3626,5.3617,5.3608,5.36,5.3694,5.3694,5.376,5.3761,5.3761]}]]